Other Public Products
Issued by NWS Grand Forks, ND

Home | Current Version | Previous Version | Text Only | Print | Product List | Glossary Off
Versions: 1 2 3 4 5 6 7 8 9 10 11 12 13 14 15 16 17 18 19 20 21 22 23 24 25 26 27 28 29 30 31 32 33 34 35 36 37 38 39 40 41 42 43 44 45 46 47 48 49 50

077
FPUS83 KFGF 290431
OPUFGF
PRAIRIE TO PINES WEATHER ROUNDUP
NATIONAL WEATHER SERVICE EASTERN NORTH DAKOTA/GRAND FORKS ND
1100 PM CDT TUE MAR 28 2017

 **SATELLITE DATA USED TO AUGMENT SKY COVER AT AUTOMATED STATIONS**
 *****  WEATHER ACROSS EASTERN NORTH DAKOTA  *****

CITY           SKY/WX    TMP DP  RH WIND       PRES   REMARKS
GRAND FORKS    MOCLDY    37  37 100 NW5       30.22R
GRAND FORKS AF FAIR      36  36 100 N3        30.22S FOG
GRAND CITY NWS NOT AVBL
BUXTON         NOT AVBL
DEVILS LAKE    FAIR      38  37  97 E8        30.20R
FARGO          FAIR      42  39  89 NW5       30.20S
WAHPETON ARPT  FAIR      45  36  70 N6        30.20S
$$

 *****  WEATHER ACROSS CENTRAL AND WESTERN NORTH DAKOTA  *****

CITY           SKY/WX    TMP DP  RH WIND       PRES   REMARKS
JAMESTOWN      FAIR      41  37  86 E7        30.18S
BISMARCK       FAIR      45  38  76 S7        30.16R
MINOT          CLOUDY    47  40  76 SW3       30.12R
MINOT AFB      MOCLDY    42  40  93 N8        30.12S
GARRISON         N/A     41  37  86 SE5       30.12R
WILLISTON      FAIR      34  34 100 CALM      30.11R FOG
DICKINSON      CLOUDY    40  39  97 S7        30.10S
HETTINGER      MOCLDY    41  39  93 SW5       30.15R
$$

 *****  OTHER OBSERVATIONS NORTHEAST NORTH DAKOTA  *****

CITY           SKY/WX    TMP DP  RH WIND       PRES   REMARKS
WALHALLA       NOT AVBL
LANGDON        MOCLDY    34  34 100 E8        30.20F
CAVALIER       FAIR      36  34  93 CALM      30.23R
GRAFTON        FAIR      34  34 100 NW7       30.24S
CANDO          NOT AVBL
FORT TOTTEN      N/A     43  43 100 SE8       29.95S
ROLLA          MOCLDY    34  34 100 CALM      30.18S
RUGBY          NOT AVBL
 ***** THE ABOVE OBSERVATIONS ARE NON NWS ARE NOT QUALITY
        CONTROLLED AND MAY MIS-REPORT RAIN FOR SNOW...
$$

 *****  OTHER OBSERVATIONS SOUTHEAST NORTH DAKOTA *****

CITY           SKY/WX    TMP DP  RH WIND       PRES   REMARKS
COOPERSTOWN    FAIR      37  37 100 E8        30.20F
VALLEY CITY    CLOUDY    43  43 100 E6        30.21F
OAKES          NOT AVBL
GWINNER        CLEAR     43  37  81 MISG      30.19F
SHEYENNE NWR     N/A     45  38  77 N2        29.95S
BUFFALO        NOT AVBL
WYNDMERE         N/A     41  37  87 NW2         N/A
 ***** THE ABOVE OBSERVATIONS ARE NON NWS ARE NOT QUALITY
       CONTROLLED AND MAY MIS-REPORT RAIN FOR SNOW...
$$

  *****  WEATHER ACROSS NORTHERN MINNESOTA  *****

CITY           SKY/WX    TMP DP  RH WIND       PRES   REMARKS
FLAG ISLAND    CLOUDY    39  21  48 E8        30.25F
WARROAD        FAIR      37  28  70 NE7       30.25S
ROSEAU         FAIR      37  28  70 E5        30.24S
HALLOCK        FAIR      37  32  81 E8        30.22S
THF RVR FALLS  FAIR      42  32  67 E10       30.23S
HALSTAD          N/A     37  37 100 NE6         N/A
FOSSTON        FAIR      39  32  75 NE6       30.22S
BAUDETTE       FAIR      38  26  62 NE3       30.25S
WASKISH        FAIR      36  28  75 NE6       30.24S
CROOKSTON      FAIR      43  34  70 E8        30.22S
$$
  *****  WEATHER ACROSS CENTRAL AND WEST MINNESOTA  *****

CITY           SKY/WX    TMP DP  RH WIND       PRES   REMARKS
BEMIDJI        FAIR      40  28  60 CALM      30.22S
PARK RAPIDS    FAIR      40  26  57 S6        30.21R
WADENA         FAIR      46  28  49 E3        30.20S
DETROIT LAKES  FAIR      46  32  57 E5        30.21S
MOORHEAD       FAIR      41  37  87 N3        30.21S
FERGUS FALLS   FAIR      48  37  66 NE3       30.23R
ELBOW LAKE     FAIR      43  40  91 CALM      30.20S
MORRIS MN      FAIR      45  37  76 N3        30.19S
STAPLES        FAIR      43  28  56 CALM      30.21S
WHEATON        FAIR      45  37  76 CALM      30.21S
$$
  *****  WEATHER ELSEWHERE ACROSS MINNESOTA  *****

CITY           SKY/WX    TMP DP  RH WIND       PRES   REMARKS
DULUTH         FAIR      39  29  67 E10       30.25R
INTRNTL FALLS  FAIR      38  25  59 NE5       30.26R
ELY            FAIR      34  27  75 E6        30.27R
CLOQUET        FAIR      36  28  75 E3        30.24S
BRAINERD       FAIR      38  30  73 CALM      30.21S
HIBBING        FAIR      40  25  55 E5        30.23R
ALEXANDRIA     FAIR      45  32  60 CALM      30.20S
SAINT CLOUD    FAIR      40  30  67 CALM      30.20R
MINNEAPOLIS    MOCLDY    54  30  40 CALM      30.20R
$$

  *****  WEATHER ACROSS SOUTH DAKOTA  *****

CITY           SKY/WX    TMP DP  RH WIND       PRES   REMARKS
SIOUX FALLS    CLOUDY    44  37  76 NE5       30.14F
BROOKINGS      FAIR      45  37  73 NE6       30.15F
WATERTOWN      FAIR      45  36  70 NE3       30.17F
HURON          FAIR      45  39  79 NE5       30.14F
SISSETON         N/A     45  39  79 NW5       30.19S
ABERDEEN       FAIR      46  34  62 E7        30.17F
MITCHELL       FAIR      48  37  65 E6        30.14F
PIERRE         CLOUDY    46  43  89 W8        30.15F
MOBRIDGE       CLOUDY    50  40  68 CALM      30.14S
RAPID CITY     CLOUDY    42  41  96 S8        30.13S FOG
$$

  *****  SOME WEATHER IN NEARBY STATES *****

CITY           SKY/WX    TMP DP  RH WIND       PRES   REMARKS
GLASGOW MT     FAIR      42  30  62 SE7       30.05R
GREAT FALLS MT FAIR      41  23  48 SW14      30.06S
CHEYENNE WY    CLOUDY    34  33  96 N8        30.09R FOG
SCOTTSBLUFF NE LGT RAIN  40  37  89 E8        30.12S
OMAHA NE       CLOUDY    49  41  74 NE15      30.08S
DES MOINES IA  CLOUDY    50  45  83 E10       30.12F
DAVENPORT IA   FAIR      39  37  92 CALM      30.19R
CHICAGO IL     CLOUDY    39  35  86 NE10      30.22R
EAU CLAIRE WI  FAIR      40  29  64 CALM      30.20R
LA CROSSE WI   FAIR      45  40  82 CALM      30.20R
$$

  *****  SOME NATIONAL WEATHER *****

CITY           SKY/WX    TMP DP  RH WIND       PRES   REMARKS
LA GUARDIA NY  CLOUDY    43  40  89 CALM      29.93S FOG
RALEIGH NC     FAIR      63  50  62 CALM      29.96S
ATLANTA GA     FAIR      67  57  70 NW7       30.01S
NEW ORLEANS LA FAIR      71  68  90 SE9       29.95S
OKLAHOMA CITY  TSTM      53  51  93 N20G28    29.76S FOG
ALBUQUERQUE NM MOCLDY    45  36  70 N6        29.82R
SALT LAKE CITY FAIR      46  34  62 NW10      30.20R
LOS ANGELES CA FAIR      62  53  72 N3        29.98R
BOISE ID       FAIR      48  30  49 CALM      30.26R
SEATTLE WA     CLOUDY    50  43  77 S13       30.17F
$$

*** WEATHER ACROSS MANITOBA...SASKATCHEWAN AND ONTARIO ***
                ***ONTARIO***

CITY           SKY/WX    TMP DP  RH WIND       PRES   REMARKS
GERALDTON      PTCLDY    25  18  74 NE5       30.35R WCI  19
THUNDER BAY    CLEAR     30  21  69 N3        30.36R
SIOUX LOOKOUT  CLEAR     28  18  64 E5        30.32R WCI  23
TORONTO        CLEAR     37  30  75 N13       30.17R
BIG TROUT LK   CLEAR     18  10  73 E3        30.41R
PICKLE LAKE    NOT AVBL
DRYDEN         CLEAR     30  19  64 NE8       30.30R WCI  23
KENORA         MOCLDY    36  19  51 E9        30.27
$$
                *** MANITOBA***

CITY           SKY/WX    TMP DP  RH WIND       PRES   REMARKS
BRANDON        CLOUDY    32  28  86 E13       30.19S WCI  22
DAUPHIN        LGT SNOW  32  30  93 SE9       30.23S WCI  24
ISLAND LAKE    PTCLDY    25  16  68 SE9       30.35S WCI  15
PILOT MOUND      N/A     34  30  86 SE14        N/A  WCI  24
THE PAS        CLOUDY    30  21  69 SE13      30.20S WCI  20
THOMPSON       CLEAR     21  10  63 E2        30.31
WINNIPEG       MOCLDY    36  27  69 NE5       30.25R
LYNN LAKE      MOCLDY    21  14  73 SE9       30.18F WCI  11
CHURCHILL      CLOUDY     7   3  85 S9        30.44R WCI  -7
GILLAM         CLEAR     14   5  67 E3        30.40S
$$
                ***SASKATCHEWAN***

CITY           SKY/WX    TMP DP  RH WIND       PRES   REMARKS
ESTEVAN        CLOUDY    34  34 100 E9        30.10F FOG
KINDERSLEY     MOCLDY    41  30  65 S9        29.87F
LLOYDMINSTER   CLOUDY    36  36 100 E9        29.88F FOG
PRINCE ALBERT  CLOUDY    36  32  87 E9        30.03F
REGINA         FOG       36  36 100 SE18      30.04S VSB 1/2
YORKTON        CLOUDY    32  30  93 SE14G21   30.12F W



USA.gov is the U.S. government's official web portal to all federal, state and local government web resources and services.